Location: Burla
(50.9568°N, 10.4983°E)
Time: 02:17:24
(UTC+00:00)

Daily predictions for brighter satellites

Satellite Brightness Start Highest point End
(mag) Time Altitude Azimuth Time Altitude Azimuth Time Altitude Azimuth
ATLAS 2AS CENTAUR R/B 3.4 03:16:43 46° NE 03:16:43 46° NE 03:23:02 10° ESE
Cosmos 2344 4.5 03:29:56 34° N 03:30:05 34° N 03:37:14 10° ENE
Lacrosse 5 rocket 4.0 03:47:59 14° NE 03:47:59 14° NE 03:48:44 10° ENE
BREEZE-M DEB (TANK) 4.4 03:54:08 55° SW 03:54:12 55° SW 03:59:06 10° SE
Cosmos 44 3.6 04:08:32 73° NE 04:08:32 73° NE 04:13:54 10° SE
Cosmos 2082 Rocket 2.6 04:12:12 40° N 04:14:06 60° NE 04:19:43 10° SE
CZ-4C R/B 3.8 04:15:28 25° NNW 04:17:19 29° NNE 04:23:37 10° ENE
Meteor 2-10 Rocket 4.3 04:13:21 10° S 04:18:18 52° E 04:23:30 10° NNE
COSMOS 2406 4.4 04:15:50 22° N 04:19:04 40° NE 04:24:27 10° ESE
Timation 1 Rocket 4.2 04:19:01 73° W 04:19:14 74° WSW 04:25:12 10° SSE
Cosmos 2278 Rocket 2.9 04:14:32 11° S 04:19:47 53° ESE 04:25:17 10° NE
BREEZE-M DEB (TANK) 4.5 04:23:14 45° WSW 04:26:17 83° S 05:00:13 10° E
COSMO-SKYMED 1 2.8 04:23:37 10° SSE 04:27:40 63° ENE 04:28:08 58° NE
Cosmos 2084 4.5 04:30:17 35° NNE 04:30:17 35° NNE 04:32:56 10° NE
Cosmos 1943 Rocket 2.4 04:25:36 21° SSW 04:29:21 67° ESE 04:34:49 10° NE
USA 307 3.2 04:32:58 55° SE 04:32:58 55° SE 04:36:09 10° ESE
Cosmos 1763 Rocket 4.2 04:30:51 22° N 04:33:52 49° ENE 04:38:47 10° SE
Cosmos 1140 Rocket 4.2 04:31:25 10° S 04:36:22 52° ESE 04:41:21 10° NNE
Cosmos 540 Rocket 4.2 04:40:31 18° N 04:44:07 51° ENE 04:49:04 10° SE
TIMED 4.3 04:44:26 78° WNW 04:44:26 78° WNW 04:48:41 10° NNE
Timation 2 Rocket 4.1 04:45:33 10° SSW 04:52:07 81° ESE 04:58:26 10° NNE
Cosmos 1743 Rocket 3.6 04:49:43 10° S 04:54:08 78° E 04:58:34 10° NNE
Cosmos 2181 Rocket 4.2 04:48:32 10° NNW 04:54:37 48° W 05:00:43 10° SSW
Okean 1-7 3.9 04:51:45 10° N 04:55:47 48° ENE 04:59:49 10° SSE
CZ-4 R/B 3.7 04:52:37 10° NNE 04:57:26 87° WNW 05:02:19 10° SSW
Cosmos 2184 Rocket 3.8 04:55:03 10° SSW 05:01:14 74° WNW 05:07:25 10° N
GEOS 3 Rocket 3.6 04:56:10 10° SE 05:01:26 86° SW 05:04:15 29° NW
SOZ 4.2 05:01:55 70° NE 05:01:55 70° NE 05:05:25 10° E
Lacrosse 4 Rocket 2.4 04:58:56 10° S 05:02:41 44° ESE 05:06:25 10° NE
FengYun 1-2 T 4.4 04:57:38 10° N 05:02:57 47° WNW 05:06:39 19° SW
Gblst 52 Del rocket 4.4 05:04:20 36° W 05:06:10 50° SSW 05:11:30 10° SE
NOAA 12 4.0 05:02:21 10° N 05:07:32 63° WNW 05:12:40 10° SSW
ATLAS 2AS CENTAUR R/B 2.7 05:04:10 29° NW 05:07:46 63° SW 05:14:24 10° SSE
Cosmos 1484 Rocket 3.4 05:04:54 10° NNE 05:08:14 49° E 05:11:34 10° S
CZ-2C R/B 4.4 05:08:00 10° NNW 05:08:21 11° NNW 05:08:21 11° NNW
Cosmos 2228 Rocket 3.5 05:07:24 10° N 05:11:46 61° ENE 05:16:05 10° SSE
SJ 16-02 3.8 05:09:21 10° SSE 05:12:45 24° E 05:16:10 10° NE
Cosmos 1805 Rocket 3.8 05:13:06 10° SSW 05:17:19 43° WNW 05:21:34 10° N
RUBIN 8/PSLV 4.3 05:14:37 10° NNE 05:18:51 81° WNW 05:23:03 10° SSW
Cosmos 407 Rocket 3.9 05:16:51 10° S 05:21:55 64° ESE 05:27:05 10° NNE
BREEZE-M DEB (TANK) 2.7 05:22:02 44° SSW 05:22:09 45° SSW 05:24:26 10° ESE
Cosmos 921 Rocket 3.4 05:21:33 32° W 05:22:43 38° WNW 05:26:42 10° N
Lacrosse 5 rocket 2.0 05:21:30 28° NNW 05:22:50 37° NNE 05:26:22 10° E
SMAP 4.3 05:18:22 10° NNE 05:22:52 45° E 05:27:19 10° S
IRS-1D 3.8 05:17:58 10° N 05:23:05 49° WNW 05:28:11 10° SW
Cosmos 2074 Rocket 4.1 05:17:21 10° SSW 05:23:28 52° WNW 05:29:37 10° N
Cosmos 1500 Rocket 4.0 05:20:53 10° SW 05:24:57 37° WNW 05:29:04 10° N
CENTAUR R/B 3.4 05:23:01 10° SSW 05:28:20 49° ESE 05:35:00 10° NE
Cosmos 1408 Rocket 4.2 05:28:03 26° WSW 05:29:17 30° WNW 05:33:08 10° N
Helios 1A Rocket 2.6 05:27:08 10° S 05:30:21 46° W 05:31:43 29° NW
Cosmos 1610 Rocket 4.4 05:25:29 10° SSW 05:31:35 70° WNW 05:37:46 10° N
SeaSat 1 3.9 05:29:13 10° NE 05:33:51 41° ESE 05:38:27 10° S
MOS 1 Rocket 4.1 05:29:33 10° NNE 05:33:57 49° E 05:38:08 10° S
Cosmos 1758 3.5 05:30:49 10° SW 05:34:19 39° WNW 05:37:50 10° N
ATLAS CENTAUR R/B 3.0 05:36:43 10° SW 05:36:43 10° SW 05:36:51 10° SW
Nadezhda 3 Rocket 4.3 05:30:51 10° NNW 05:36:41 43° W 05:42:33 10° SSW
Cosmos 468 Rocket 4.0 05:33:36 10° NNW 05:38:45 85° ENE 05:43:55 10° SSE
Cosmos 1703 Rocket 4.3 05:35:59 10° N 05:40:13 53° ENE 05:44:26 10° SSE
SL-12 R/B(2) 4.4 05:36:20 10° SW 05:44:31 82° NW 05:54:42 10° NE
Thor Agena Rocket 4.1 05:40:29 10° NNE 05:45:34 61° ESE 05:50:40 10° S
Cosmos 2344 4.4 05:39:56 13° NW 05:46:31 47° NNE 05:55:30 10° ESE
IGS 5A 3.5 05:48:17 10° N 05:52:07 47° WNW 05:55:56 10° SW
Cosmos 2084 Rocket 3.9 05:50:18 19° WNW 05:53:00 44° SW 05:57:01 10° SSE
CZ-2D R/B 3.5 05:51:16 10° NNE 05:54:20 53° E 05:57:22 10° S
Meteor 1-24 Rocket 3.8 05:49:35 10° NNW 05:55:37 74° W 06:01:35 10° S
Meteor 2-5 Rocket 3.8 05:51:01 10° NNW 05:56:54 79° W 06:02:49 10° S
Cosmos 1470 Rocket 3.5 05:52:52 10° S 05:57:10 86° E 06:01:29 10° N
Cosmos 2082 Rocket 3.1 05:54:03 14° NW 05:57:48 28° WSW 06:02:34 10° SSW
SL-23 DEB 3.3 05:57:05 16° W 05:59:32 88° NNW 06:03:05 10° E
USA 307 4.0 05:57:41 15° W 05:59:59 25° SW 06:03:10 10° SSE
Meteor 2-10 Rocket 4.4 05:56:17 10° WSW 06:00:39 27° WNW 06:05:12 10° N
Cosmos 2366 rocket 4.0 05:55:55 10° S 06:02:09 86° W 06:08:29 10° N
Cosmos 1328 3.8 05:59:34 10° NNW 06:03:01 44° W 06:06:27 10° SSW
COSMO-SKYMED 1 4.0 06:00:51 10° SW 06:03:23 16° W 06:04:28 14° WNW
COSMOS 2406 3.6 05:58:00 10° NW 06:03:27 46° WSW 06:08:54 10° S
Cosmos 2278 Rocket 2.8 05:58:56 10° WSW 06:04:06 35° NW 06:09:18 10° NNE
Cosmos 1862 Rocket 4.3 06:01:08 10° NNW 06:04:57 31° W 06:08:44 10° SSW
CZ-4C R/B 3.3 06:00:28 10° NW 06:06:51 57° NE 06:14:58 10° ESE
Cosmos 1656 Rocket 3.7 06:01:21 10° SSW 06:07:02 86° WNW 06:12:44 10° NNE
Cosmos 1461 2.7 06:05:02 10° SW 06:08:54 85° SE 06:12:50 10° NE
Cosmos 2218 Rocket 4.0 06:03:53 10° SSW 06:10:12 82° W 06:16:38 10° N
Cosmos 1943 Rocket 3.0 06:08:48 10° WSW 06:13:32 28° NW 06:18:18 10° NNE
Cosmos 1763 Rocket 4.4 06:11:04 10° NW 06:15:20 28° W 06:19:36 10° SSW
YAOGAN 1 4.3 06:11:32 10° NNE 06:15:29 36° E 06:19:26 10° SSE
Cosmos 1140 Rocket 4.3 06:13:53 10° WSW 06:18:20 29° NW 06:22:50 10° N
Cosmos 1190 Rocket 4.1 06:13:25 10° SSW 06:18:37 87° ESE 06:23:50 10° NNE
Cosmos 2297 Rocket 4.1 06:16:05 10° NNW 06:20:16 20° NE 06:24:26 10° E
Meteor 1-16 Rocket 4.4 06:15:21 10° S 06:20:47 76° E 06:26:08 10° NNE
Cosmos 841 Rocket 3.5 06:15:54 10° NNW 06:21:05 86° WSW 06:26:14 10° SSE
Gbstr 26 Del rocket 4.1 06:16:35 10° W 06:23:52 85° N 06:29:55 10° E
Cosmos 540 Rocket 4.4 06:21:06 10° NW 06:25:19 27° W 06:29:32 10° SSW
NOSS 2-2 (C) 2.6 06:22:23 10° SW 06:25:36 87° SE 06:28:36 10° NE
Cosmos 1959 Rocket 4.5 06:21:05 10° SSW 06:27:11 66° WNW 06:33:17 10° N
Cosmos 1727 Rocket 4.0 06:21:45 10° N 06:27:59 87° W 06:34:10 10° S
Cosmos 1633 Rocket 3.7 06:24:44 10° SW 06:28:40 33° WNW 06:32:35 10° N
CORIOLIS 4.3 06:23:27 10° N 06:28:47 57° WNW 06:34:05 10° SW
Cosmos 1833 4.4 06:23:18 10° NNW 06:29:09 84° ENE 06:34:55 10° SSE
Cosmos 2341 Rocket 4.2 06:23:35 10° SSW 06:29:50 54° WNW 06:36:06 10° N
AQUARIUS 4.1 06:26:58 10° N 06:31:23 73° WNW 06:35:46 10° SSW
Cosmos 1869 Rocket 4.1 06:27:33 10° S 06:31:56 65° E 06:36:22 10° NNE
Okean 1-7 4.3 06:29:30 10° NW 06:32:27 19° W 06:35:24 10° SW
GP-B 4.1 06:28:22 10° N 06:32:39 50° E 06:36:53 10° SSE
Cosmos 676 Rocket 4.3 06:28:15 10° SSW 06:33:23 74° ESE 06:38:33 10° NNE
USA 234 4.2 06:29:51 10° ENE 06:36:16 53° SE 06:42:39 10° SW
Meteor 2-15 4.5 06:30:24 10° SSW 06:36:33 83° W 06:42:46 10° N
